Find Kosmos-2317

NORAD ID: 23621 Int'l Des: 1995-037 Owner: VKS/IACG Country: RU Constellation: GLONASS operational
MEOCIRCULAR

現在のビュー

3D地球を読み込み中...

About Kosmos-2317

Kosmos-2317 (NORAD 23621) is a GLONASS constellation satellite launched Jul 24, 1995 by VKS/IACG of RU. It operates in MEO, CIRCULAR orbit with a mass of 1300.00 kg.

Kosmos-2317について

説明を読み込み中...

次回通過

Passes for default location (London). Set your location on the main map for personalized predictions.

高度履歴

Loading altitude history...

軌道要素

1 23621U 95037B 26173.23737084 .00000070 00000-0 00000-0 0 9998
2 23621 65.4786 202.7925 0009323 175.6680 276.5249 2.13101789240361
Epoch: Jun 22, 2026 • Age: 55 hours

現在のステータス

高度 19149.9 km
速度 3.95 km/s
衛星直下点 38.45°N, 124.13°E
打ち上げ日 Jul 24, 1995
運用期間 30.9 years
タイプ other

技術仕様

分類 Payload
質量 1300.00 kg
乾燥質量 1200.00 kg
総質量 1300.00 kg
長さ 4.00 m
直径 1.50 m
スパン 7.80 m
形状 Cyl + Ant + 2 Pan
製造者 POL
バスタイプ Uragan
フェーズステータス In Orbit
所有者/国 VKS/IACG/RU

Most Searched